| time (UTC) | temp F | wind direction | speed MPH | gust MPH | rain 1hr in | rain 24hr in | rain mn in | humidity % | barometer mb |
| 20260504185304 | 79 | 135 | 2.0 | 0.0 | 0.00 | 0.00 | 0.00 | 41 | 1017.6 |
| 20260504183802 | 79 | 225 | 6.0 | 0.0 | 0.00 | 0.00 | 0.00 | 42 | 1017.9 |
| 20260504182304 | 79 | 90 | 4.0 | 0.0 | 0.00 | 0.00 | 0.00 | 41 | 1017.6 |
| 20260504180802 | 79 | 203 | 3.0 | 0.0 | 0.00 | 0.00 | 0.00 | 45 | 1017.9 |
| 20260504173802 | 78 | 203 | 7.0 | 0.0 | 0.00 | 0.00 | 0.00 | 41 | 1018.6 |
| 20260504170802 | 78 | 158 | 4.0 | 0.0 | 0.00 | 0.00 | 0.00 | 42 | 1018.6 |
| 20260504150801 | 73 | 90 | 3.0 | 0.0 | 0.00 | 0.00 | 0.00 | 55 | 1019.0 |
| 20260504141302 | 70 | 203 | 2.0 | 0.0 | 0.00 | 0.00 | 0.00 | 65 | 1019.6 |
| 20260504050307 | 55 | 203 | 0.0 | 0.0 | 0.00 | 0.00 | 0.00 | 90 | 1020.0 |
| 20260504045307 | 55 | 203 | 0.0 | 0.0 | 0.00 | 0.00 | 0.00 | 88 | 1020.3 |
| 20260504042802 | 55 | 203 | 0.0 | 0.0 | 0.00 | 0.00 | 0.00 | 87 | 1020.3 |
| 20260504041307 | 56 | 203 | 0.0 | 0.0 | 0.00 | 0.00 | 0.00 | 87 | 1020.3 |
| 20260504035802 | 56 | 203 | 0.0 | 0.0 | 0.00 | 0.00 | 0.00 | 88 | 1020.3 |
| 20260504034303 | 57 | 203 | 0.0 | 0.0 | 0.00 | 0.00 | 0.00 | 86 | 1020.3 |
| 20260504032802 | 57 | 203 | 0.0 | 0.0 | 0.00 | 0.00 | 0.00 | 86 | 1020.3 |
| 20260504030802 | 58 | 203 | 0.0 | 0.0 | 0.00 | 0.00 | 0.00 | 85 | 1020.3 |
| 20260504024802 | 58 | 203 | 0.0 | 0.0 | 0.00 | 0.00 | 0.00 | 83 | 1020.3 |
| 20260504022803 | 59 | 203 | 0.0 | 0.0 | 0.00 | 0.00 | 0.00 | 82 | 1020.0 |
| 20260504021802 | 59 | 203 | 1.0 | 0.0 | 0.00 | 0.00 | 0.00 | 80 | 1020.0 |
| 20260504020303 | 60 | 225 | 0.0 | 0.0 | 0.00 | 0.00 | 0.00 | 79 | 1019.6 |
| 20260504014802 | 61 | 203 | 0.0 | 0.0 | 0.00 | 0.00 | 0.00 | 77 | 1019.6 |
| 20260504013302 | 62 | 203 | 0.0 | 0.0 | 0.00 | 0.00 | 0.00 | 76 | 1019.6 |
| 20260504011803 | 64 | 203 | 0.0 | 0.0 | 0.00 | 0.00 | 0.00 | 71 | 1019.3 |
| 20260504003302 | 72 | 203 | 0.0 | 0.0 | 0.00 | 0.00 | 0.00 | 60 | 1019.3 |
| 20260504001803 | 73 | 225 | 1.0 | 0.0 | 0.00 | 0.00 | 0.00 | 60 | 1019.3 |
| 20260504000302 | 72 | 225 | 0.0 | 0.0 | 0.00 | 0.00 | 0.00 | 61 | 1019.3 |
| 20260503234802 | 75 | 203 | 0.0 | 0.0 | 0.00 | 0.00 | 0.00 | 56 | 1019.3 |
| 20260503233306 | 78 | 203 | 1.0 | 0.0 | 0.00 | 0.00 | 0.00 | 45 | 1019.6 |
| 20260503231802 | 79 | 203 | 2.0 | 0.0 | 0.00 | 0.00 | 0.00 | 44 | 1019.6 |
| 20260503225802 | 80 | 180 | 1.0 | 0.0 | 0.00 | 0.00 | 0.00 | 38 | 1020.0 |
| 20260503222803 | 80 | 180 | 1.0 | 0.0 | 0.00 | 0.00 | 0.00 | 42 | 1020.0 |
| 20260503221302 | 80 | 203 | 2.0 | 0.0 | 0.00 | 0.00 | 0.00 | 42 | 1020.0 |
| 20260503215802 | 78 | 225 | 0.0 | 0.0 | 0.00 | 0.00 | 0.00 | 42 | 1020.3 |
| 20260503211302 | 81 | 248 | 1.0 | 0.0 | 0.00 | 0.00 | 0.00 | 39 | 1020.7 |
| 20260503205802 | 80 | 248 | 4.0 | 0.0 | 0.00 | 0.00 | 0.00 | 36 | 1021.0 |
| 20260503202803 | 80 | 225 | 4.0 | 0.0 | 0.00 | 0.00 | 0.00 | 38 | 1021.7 |
| 20260503201302 | 80 | 180 | 5.0 | 0.0 | 0.00 | 0.00 | 0.00 | 36 | 1021.7 |
| 20260503195801 | 79 | 270 | 1.0 | 0.0 | 0.00 | 0.00 | 0.00 | 35 | 1022.0 |
| 20260503194302 | 79 | 225 | 5.0 | 0.0 | 0.00 | 0.00 | 0.00 | 37 | 1022.4 |
| 20260503192802 | 80 | 270 | 1.0 | 0.0 | 0.00 | 0.00 | 0.00 | 37 | 1022.4 |
| 20260503185802 | 79 | 248 | 3.0 | 0.0 | 0.00 | 0.00 | 0.00 | 37 | 1023.0 |